User: anonymous   Login
Location: Unspecified
(0.0000°N, 0.0000°E)
Time: 19:00:02
(UTC+00:00)
Language:

PACE-1 - Orbit

View from above orbital plane
View from above orbital plane
View from above satellite
View from above satellite

Ground track
Ground track

The orbit is defined by the following mean orbital elements,

1 48909U          26145.06960310 +.00000000 +00000-0 +44851-3 0 00001
2 48909  97.6793 340.6744 0002064  69.0646 291.0839 15.75841241    04
Epoch (UTC): 25 May 2026 01:40:13
Eccentricity: 0.0002064
inclination: 97.6793°
perigee height: 341 km
apogee height: 344 km
right ascension of ascending node: 340.6744°
argument of perigee: 69.0646°
revolutions per day: 15.75841241
mean anomaly at epoch: 291.0839°

The dashed part of the orbit path shows where the satellite is in the earth's shadow,  

DLR